Dansville, NY

6:28 PM EDT on August 20, 2017 (GMT -0400)
Dansville Municipal

Weather History for KDSV - October, 2012

Change the Weather History Date:

Wednesday, October 10, 2012

  Actual Average Record
Temperature  
Mean Temperature 50 °F -  
Max Temperature 59 °F 61 °F 89 °F (1949)
Min Temperature 41 °F 41 °F 26 °F (1980)
Degree Days  
Heating Degree Days 15    
Moisture  
Dew Point 41 °F    
Average Humidity 75    
Maximum Humidity 96    
Minimum Humidity 52    
Precipitation  
Precipitation 0.02 in - - ()
Sea Level Pressure  
Sea Level Pressure 29.94 in    
Wind  
Wind Speed 4 mph (SSW)    
Max Wind Speed 14 mph    
Max Gust Speed 25 mph    
Visibility 10 miles    
Events Rain    
Averages and records for this station are not official NWS values.
T = Trace of Precipitation, MM = Missing Value Source: NWS Daily Summary

Daily Weather History Graph

Daily Weather History Graph

Search for Another Location

Airport or City:

Trip Planner

Search our weather history database for the weather conditions in past years. The results will help you decide how hot, cold, wet, or windy it might be!

Date:

Astronomy

Oct. 10, 2012 Rise Set
Actual Time 7:18 AM EDT 6:36 PM EDT
Civil Twilight 6:50 AM EDT 7:04 PM EDT
Nautical Twilight 6:17 AM EDT 7:36 PM EDT
Astronomical Twilight 5:45 AM EDT 8:09 PM EDT
Moon 1:46 AM EDT (10/10) 3:43 PM EDT (10/10)
Length of Visible Light 12h 13m
Length of Day
11h 17m
Waning Crescent, 27% of the Moon is Illuminated
Oct 10
Waning Crescent
Oct 15
New
Oct 21
First Quarter
Oct 29
Full
Nov 6
Last Quarter

Hourly Weather History & Observations

Time (EDT) Temp. Windchill Dew Point Humidity Pressure Visibility Wind Dir Wind Speed Gust Speed Precip Events Conditions
12:54 AM 44.1 °F - 41.0 °F 89% 30.01 in 10.0 mi Calm Calm - N/A   Clear
1:54 AM 44.1 °F 42.5 °F 41.0 °F 89% 30.00 in 10.0 mi South 3.5 mph - N/A   Clear
2:54 AM 42.1 °F - 39.9 °F 92% 29.98 in 10.0 mi Calm Calm - N/A   Clear
3:54 AM 41.0 °F - 39.9 °F 96% 29.95 in 10.0 mi Calm Calm - N/A   Clear
4:54 AM 42.1 °F - 39.9 °F 92% 29.95 in 10.0 mi Calm Calm - N/A   Scattered Clouds
5:54 AM 44.1 °F - 42.1 °F 93% 29.93 in 10.0 mi Calm Calm - N/A   Overcast
6:54 AM 48.0 °F - 44.1 °F 86% 29.92 in 10.0 mi SSE 6.9 mph - N/A   Overcast
7:54 AM 50.0 °F - 44.1 °F 80% 29.91 in 10.0 mi SE 9.2 mph - N/A   Scattered Clouds
8:54 AM 54.0 °F - 44.1 °F 69% 29.90 in 10.0 mi SE 6.9 mph - N/A   Clear
9:54 AM 55.9 °F - 42.1 °F 60% 29.88 in 10.0 mi South 9.2 mph 21.9 mph N/A   Scattered Clouds
10:54 AM 55.9 °F - 42.1 °F 60% 29.85 in 10.0 mi SSE 13.8 mph 21.9 mph N/A   Partly Cloudy
11:54 AM 59.0 °F - 44.1 °F 58% 29.83 in 10.0 mi South 12.7 mph 20.7 mph N/A   Scattered Clouds
12:54 PM 55.9 °F - 43.0 °F 62% 29.85 in 10.0 mi WSW 9.2 mph 25.3 mph N/A   Overcast
1:54 PM 55.0 °F - 43.0 °F 64% 29.87 in 10.0 mi West 8.1 mph - 0.00 in   Overcast
2:54 PM 51.1 °F - 44.1 °F 77% 29.89 in 10.0 mi West 9.2 mph 18.4 mph 0.00 in Rain Light Rain
3:54 PM 54.0 °F - 39.9 °F 59% 29.90 in 10.0 mi WNW 13.8 mph 21.9 mph 0.00 in   Overcast
4:54 PM 53.1 °F - 36.0 °F 52% 29.91 in 10.0 mi WNW 6.9 mph - N/A   Scattered Clouds
5:54 PM 51.1 °F - 36.0 °F 56% 29.92 in 10.0 mi Variable 4.6 mph - N/A   Mostly Cloudy
6:54 PM 46.0 °F - 39.9 °F 79% 29.96 in 10.0 mi Calm Calm - 0.01 in   Overcast
7:54 PM 44.1 °F 42.5 °F 39.0 °F 82% 29.97 in 10.0 mi South 3.5 mph - N/A   Partly Cloudy
8:54 PM 45.0 °F 43.5 °F 39.9 °F 82% 29.99 in 10.0 mi SSW 3.5 mph - N/A   Overcast
9:54 PM 46.0 °F 44.8 °F 39.0 °F 76% 30.02 in 10.0 mi Variable 3.5 mph - 0.00 in Rain Light Rain
10:54 PM 44.1 °F 42.5 °F 39.0 °F 82% 30.04 in 10.0 mi Variable 3.5 mph - 0.01 in   Mostly Cloudy
11:54 PM 45.0 °F 43.5 °F 37.9 °F 76% 30.05 in 10.0 mi Variable 3.5 mph - 0.00 in   Overcast